Temp
15 15 15 16 16 16 16 16 15 15 15 15 14 14 14 14 13 13 13 13 14 14 14 13 13 13 14 14 14 13 13 13 13
15 15 15 16 16 16 16 16 16 15 15 15 15 14 14 13 13 13 13 13 13 14 14 14 14 13 13 13 13 13 13 13 13
15 15 15 15 16 16 16 16 16 15 15 15 15 15 14 13 13 12 12 14 14 14 14 14 14 14 13 13 13 13 13 13 12
14 15 15 15 15 16 16 16 16 15 15 15 15 15 15 13 14 13 12 14 14 14 14 14 14 14 14 13 13 13 12 12 12
16 15 15 16 16 16 16 16 16 15 15 15 15 15 15 13 14 13 13 14 14 14 14 14 14 14 14 14 13 13 13 13 12
16 16 15 15 15 15 16 16 16 15 15 15 15 15 13 13 13 13 14 14 14 14 14 14 14 14 14 14 14 14 13 13 13
16 16 16 16 16 15 15 15 15 15 15 15 15 14 14 14 14 13 14 14 13 14 13 13 13 14 14 14 14 14 13 13 13
16 16 16 16 15 15 15 15 14 15 15 15 14 15 15 13 14 13 14 14 13 13 13 13 13 13 13 13 13 13 13 13 12
16 16 16 16 16 15 15 14 15 15 15 15 14 14 14 14 14 13 14 14 13 13 12 13 13 13 13 13 13 13 12 12 12
16 15 15 16 15 15 14 15 14 14 14 15 15 14 14 14 14 14 14 13 13 13 12 11 12 12 12 12 12 12 12 12 12
15 15 15 15 15 15 14 14 14 14 14 14 14 14 14 14 14 13 13 13 13 12 12 12 11 11 11 12 12 12 12 12 12
15 15 15 15 15 14 14 14 14 14 14 14 14 13 13 13 13 13 13 13 13 12 12 12 12 11 10 10 10 9 11 11 11
15 15 14 14 14 14 14 14 14 14 14 14 13 14 14 14 13 13 13 13 13 12 12 12 12 11 11 10 9 9 9 9 10
15 15 14 14 14 14 14 14 14 14 13 14 14 13 14 14 13 13 12 13 13 12 12 12 12 11 11 11 10 10 9 10 9
15 15 14 14 14 14 14 14 14 14 14 13 14 14 13 14 13 13 12 12 12 12 12 12 12 12 11 11 10 10 10 9 9
15 14 14 14 14 14 14 14 14 14 13 13 13 12 12 13 12 13 12 12 12 12 12 12 12 11 12 11 11 10 10 10 9
15 14 14 14 14 14 14 14 13 13 13 13 12 12 13 13 12 12 12 12 12 12 11 11 11 11 11 11 11 10 10 9 9
15 15 14 14 14 14 14 14 13 12 13 13 12 11 13 12 12 12 12 11 11 11 11 11 10 10 10 10 10 10 10 9 9
14 14 14 14 14 14 14 14 13 12 12 12 12 12 10 10 11 10 10 10 10 10 10 9 9 9 9 9 9 9 9 9 9
14 13 13 13 13 13 13 13 13 10 11 11 11 11 11 10 9 9 9 10 10 9 9 8 9 9 9 8 8 8 8 9 9
Height
1575 1576 1576 1575 1575 1575 1575 1575 1575 1575 1575 1575 1575 1575 1575 1575 1577 1576 1576 1575 1575 1574 1573 1572 1572 1571 1570 1569 1568 1567 1566 1566 1565
1577 1577 1577 1577 1577 1577 1577 1577 1577 1577 1577 1576 1577 1577 1577 1579 1578 1579 1577 1576 1576 1574 1574 1573 1572 1572 1571 1570 1570 1569 1568 1568 1567
1578 1579 1579 1579 1579 1579 1580 1580 1579 1579 1579 1579 1579 1578 1579 1580 1580 1579 1579 1577 1576 1575 1574 1573 1573 1572 1571 1571 1571 1570 1569 1568 1567
1579 1579 1580 1580 1580 1580 1579 1580 1580 1580 1580 1580 1580 1580 1580 1581 1580 1579 1580 1578 1577 1576 1575 1574 1572 1571 1571 1571 1570 1570 1569 1568 1567
1579 1580 1580 1580 1580 1580 1580 1580 1580 1580 1580 1580 1580 1580 1580 1581 1580 1579 1579 1578 1577 1576 1576 1574 1573 1572 1571 1570 1569 1568 1567 1566 1565
1580 1580 1581 1581 1580 1580 1580 1580 1580 1580 1580 1580 1580 1580 1580 1580 1580 1579 1578 1578 1577 1576 1576 1574 1573 1572 1570 1569 1569 1568 1566 1565 1564
1580 1580 1581 1581 1581 1580 1580 1579 1580 1580 1580 1580 1580 1580 1579 1579 1579 1578 1577 1577 1576 1576 1574 1573 1573 1571 1570 1569 1567 1566 1565 1564 1563
1579 1579 1579 1580 1580 1580 1579 1579 1579 1579 1579 1579 1579 1579 1578 1578 1577 1577 1576 1575 1575 1574 1573 1572 1571 1570 1569 1568 1566 1565 1564 1563 1562
1578 1578 1578 1578 1578 1579 1579 1579 1578 1578 1577 1577 1577 1577 1576 1576 1575 1575 1574 1573 1573 1572 1571 1570 1569 1569 1568 1566 1565 1563 1562 1561 1560
1576 1577 1577 1577 1577 1577 1577 1577 1577 1576 1576 1576 1575 1575 1574 1573 1573 1572 1571 1571 1570 1570 1569 1569 1567 1567 1566 1565 1564 1562 1561 1560 1559
1575 1575 1576 1576 1576 1576 1576 1576 1576 1575 1575 1574 1573 1573 1572 1571 1570 1570 1569 1568 1568 1567 1567 1566 1565 1565 1563 1563 1561 1560 1559 1558 1557
1573 1574 1574 1574 1574 1574 1574 1574 1574 1573 1573 1572 1572 1571 1570 1569 1568 1567 1566 1565 1564 1564 1564 1563 1563 1562 1562 1560 1560 1558 1556 1556 1555
1572 1572 1573 1573 1572 1572 1572 1572 1571 1571 1570 1570 1569 1568 1567 1566 1565 1564 1562 1561 1561 1560 1560 1560 1560 1559 1558 1558 1557 1556 1554 1553 1552
1569 1570 1570 1570 1570 1569 1569 1569 1569 1568 1567 1566 1565 1564 1563 1562 1561 1561 1559 1558 1557 1557 1556 1555 1555 1555 1554 1554 1553 1553 1552 1550 1550
1566 1566 1566 1567 1566 1566 1566 1565 1565 1564 1563 1562 1560 1560 1558 1558 1557 1557 1556 1555 1553 1552 1551 1551 1550 1550 1549 1549 1549 1549 1549 1548 1546
1562 1562 1562 1562 1562 1562 1561 1560 1560 1559 1558 1557 1556 1555 1553 1552 1552 1551 1552 1551 1549 1548 1547 1546 1545 1544 1542 1542 1542 1542 1543 1543 1542
1557 1557 1557 1557 1556 1556 1556 1555 1554 1553 1553 1552 1551 1550 1551 1549 1547 1547 1547 1547 1545 1544 1543 1542 1541 1539 1538 1536 1536 1536 1537 1537 1538
1552 1552 1551 1551 1551 1551 1550 1549 1548 1548 1547 1547 1548 1547 1546 1544 1544 1543 1543 1543 1541 1541 1540 1538 1537 1535 1534 1533 1532 1530 1529 1530 1531
1546 1546 1546 1545 1545 1545 1544 1544 1543 1543 1542 1541 1541 1541 1541 1541 1540 1539 1539 1538 1537 1537 1536 1534 1532 1530 1529 1528 1527 1526 1525 1524 1525
1540 1540 1540 1540 1539 1538 1538 1537 1536 1536 1536 1536 1536 1536 1535 1536 1535 1533 1534 1535 1534 1533 1532 1530 1528 1526 1524 1523 1521 1520 1520 1519 1519
Wind_Speed
8 8 10 11 12 12 12 12 12 12 12 12 11 10 10 12 10 13 13 7 8 10 10 8 9 8 8 8 7 6 5 5 3
7 6 7 9 10 11 11 11 11 11 10 11 11 11 11 10 9 8 6 4 9 10 10 6 2 3 5 6 6 5 4 3 1
8 6 5 7 8 7 7 7 7 7 8 8 8 9 10 8 6 5 4 7 8 9 9 7 5 4 1 1 2 2 3 2 4
6 5 4 4 5 5 5 5 5 5 5 5 5 5 5 4 4 5 5 8 9 10 10 9 7 5 2 4 6 7 7 7 8
7 7 6 4 2 2 2 1 2 2 2 1 2 2 2 1 4 4 4 6 7 8 9 10 9 8 7 5 7 9 10 12 13
4 5 5 4 3 2 2 2 2 2 2 3 2 2 2 3 2 3 6 6 7 8 8 9 9 8 7 6 5 6 8 9 10
6 6 6 6 5 5 5 5 5 5 5 5 5 4 5 5 5 6 7 8 9 9 9 10 10 9 9 8 8 7 6 7 8
7 7 6 7 7 6 6 7 6 8 8 8 7 7 7 6 8 8 8 9 9 11 11 11 11 11 10 10 9 9 8 7 7
6 7 7 7 7 7 7 7 8 10 10 9 9 9 9 8 9 9 10 10 10 10 12 12 12 12 11 11 10 9 8 8 8
7 7 7 7 6 6 6 7 8 9 9 10 10 10 10 10 11 10 10 11 12 12 12 13 14 14 13 13 12 11 11 10 9
7 7 7 8 7 7 6 6 7 7 8 9 10 9 10 11 11 12 12 12 13 13 13 14 14 15 15 15 15 14 12 11 11
6 6 6 7 9 9 9 9 9 9 9 9 10 11 11 12 13 14 14 16 16 15 15 15 15 16 16 15 14 16 16 13 11
8 8 7 8 10 11 12 12 13 13 13 13 12 14 14 15 15 17 18 19 19 20 19 18 17 18 19 18 16 16 19 19 16
11 12 12 12 14 14 15 15 16 16 16 18 19 19 20 20 21 21 20 22 23 23 23 20 20 20 21 20 19 19 19 21 21
15 16 15 16 18 19 19 19 20 22 21 21 23 22 22 22 22 20 19 17 20 22 24 25 26 25 24 23 21 20 20 21 23
19 19 19 20 20 20 21 22 23 24 22 21 20 16 16 20 18 21 16 16 16 16 13 17 19 22 21 22 23 23 23 22 23
22 23 24 24 25 24 24 24 24 26 24 21 20 16 16 17 13 10 12 13 18 19 21 21 19 19 19 21 21 22 24 25 25
24 25 26 26 27 27 27 26 26 25 26 24 19 11 12 11 12 15 19 19 16 17 20 23 22 21 20 22 22 22 24 26 27
24 25 25 25 25 26 27 27 26 23 24 25 23 22 21 15 13 12 16 18 17 16 19 21 24 23 22 22 21 21 22 23 25
25 25 25 26 27 28 28 27 27 24 24 22 22 21 19 18 19 17 13 14 14 18 14 17 17 17 21 21 22 20 21 23 24
Wind_Direction
115 97 85 87 96 100 100 98 96 90 87 90 90 87 93 93 87 80 69 72 24 18 28 38 38 30 41 42 50 53 69 94 94
145 120 97 88 99 107 113 112 106 100 96 97 93 96 98 97 88 71 81 30 1 16 24 29 13 14 56 43 43 46 57 75 60
164 145 109 89 85 92 94 94 91 87 84 89 95 100 103 90 88 70 42 19 14 16 20 24 11 334 235 114 62 333 318 304 321
176 158 138 113 94 99 102 99 96 92 81 80 82 82 81 79 55 45 39 13 13 9 9 13 10 5 310 260 260 257 256 265 278
160 168 175 163 147 118 108 115 87 79 87 93 91 69 60 28 17 16 350 356 360 1 7 7 6 4 352 316 275 266 269 271 275
181 190 193 204 217 244 272 287 291 307 315 316 313 319 297 300 306 331 330 334 342 347 355 2 1 359 352 339 318 297 281 274 279
214 226 228 230 239 253 265 279 287 281 283 297 301 298 292 288 286 295 316 324 326 334 342 347 350 348 345 341 332 323 314 306 303
232 244 244 246 247 257 263 270 278 280 277 280 285 291 296 289 286 286 305 314 316 320 328 331 334 337 340 337 333 327 319 312 304
237 246 249 251 250 250 256 258 265 274 278 278 283 292 297 297 288 288 296 302 305 306 310 316 321 323 328 332 330 320 310 303 295
241 252 253 251 250 255 263 266 267 271 273 279 284 289 295 296 293 294 294 293 298 299 300 298 308 313 318 320 322 322 314 303 291
236 252 251 250 252 257 266 273 277 278 279 280 282 289 290 290 291 291 292 292 294 297 297 296 293 297 307 310 312 312 314 310 296
241 248 254 258 258 258 264 269 274 279 285 288 285 284 283 286 288 292 291 291 290 289 291 293 292 289 290 290 290 293 304 307 303
256 259 260 259 262 264 268 272 278 282 282 284 279 283 283 285 287 287 289 292 293 294 288 287 289 289 286 283 281 275 283 293 298
263 265 263 262 265 269 271 274 277 278 278 283 281 281 282 282 283 284 285 288 290 288 290 285 281 282 281 279 275 277 274 283 292
264 267 267 266 267 270 273 276 274 277 278 279 284 284 283 286 284 285 284 286 288 290 283 282 283 281 279 278 276 271 270 266 274
262 264 268 269 270 273 273 273 274 275 280 281 288 288 287 284 278 280 281 279 286 291 290 293 289 287 281 271 271 270 270 267 267
264 266 268 271 273 272 273 275 274 275 271 273 278 290 289 283 283 271 272 277 281 282 290 290 287 286 279 274 266 262 264 264 261
267 268 269 270 271 272 272 272 273 272 275 275 269 277 275 281 276 285 284 286 280 287 285 287 284 282 278 275 273 266 261 261 263
267 267 267 268 268 269 271 271 269 268 267 272 272 268 268 271 277 266 276 282 281 287 293 292 288 285 286 284 279 274 270 263 260
265 265 266 267 270 272 273 273 272 264 266 271 274 275 267 266 267 278 274 282 279 284 284 288 295 297 293 291 286 281 272 269 264